カタログに戻る

STARLINK-34084

運用中通信VLEO
NORAD 63970·PAYLOAD·🇺🇸 United States

打ち上げ May 13, 2025 から Cape Canaveral Space Force Station

Loading…

次のパス (今後24時間)

TLE

最新Source: CelesTrak SupGP

元期: Sep 14, 2026, 20:56 UTC

1 63970C 25099U   26257.87270833  .00001163  00000+0  42128-4 0  2578
2 63970  43.0028 187.3869 0001409 262.5091 120.7487 15.27580592    19

AllMySatでSTARLINK-34084をリアルタイム追跡

Download on the App Store